Skip Page Navigation
NASA JPL Caltech
NASA Logo - Jet Propulsion Laboratory + View the NASA Portal
+ Near-Earth Object (NEO) Program
Search JPL
JPL Home Earth Solar System Stars & Galaxies Technology
JPL Solar System Dynamics
BODIES ORBITS EPHEMERIDES TOOLS PHYSICAL DATA DISCOVERY FAQ SITE MAP
JPL Small-Body Database Browser
Search: [ help ]  
7180 (1991 NG1)
Classification: Main-belt Asteroid          SPK-ID: 2007180
Ephemeris | Orbit Diagram | Orbital Elements | Physical Parameters | Discovery Circumstances ]

[ show orbit diagram ]
Orbital Elements at Epoch 2457000.5 (2014-Dec-09.0) TDB
Reference: JPL 12 (heliocentric ecliptic J2000)
 Element Value Uncertainty (1-sigma)   Units 
e .109661768680045 8.7769e-08  
a 3.013919023626822 3.3012e-08 AU
q 2.68340733283747 2.6745e-07 AU
i 9.045791616458738 8.3418e-06 deg
node 307.5668465330853 4.4648e-05 deg
peri 43.00355005077547 5.477e-05 deg
M 144.8437712045962 3.0509e-05 deg
tp 2456231.558820615752
(2012-Oct-31.05882062)
0.00016124 JED
period 1911.154496159275
5.23
3.14e-05
8.597e-08
d
yr
n .1883678167952768 3.0949e-09 deg/d
Q 3.344430714416174 3.6632e-08 AU
  Orbit Determination Parameters
   # obs. used (total)      788  
   data-arc span      11755 days (32.18 yr)  
   first obs. used      1982-12-22  
   last obs. used      2015-02-27  
   planetary ephem.      DE431  
   SB-pert. ephem.      SB431-BIG16  
   condition code      0  
   fit RMS      .51221  
   data source      ORB  
   producer      Otto Matic  
   solution date      2015-Mar-09 14:07:37  

Additional Information
 Earth MOID = 1.68512 AU 
 T_jup = 3.221 
[ show covariance matrix ]

Ephemeris | Orbit Diagram | Orbital Elements | Physical Parameters | Discovery Circumstances ]

Physical Parameter Table
Parameter Symbol Value Units Sigma Reference Notes
absolute magnitude H 12.9 mag n/a MPO250280  

7180 (1991 NG1)          Discovered 1991-Jul-12 by Holt, H. E. at Palomar
Reference: DISCOVERY.DBLast Updated: 2003-08-29

Alternate Designations
 1991 NG1 = 1982 YR = 1990 HV2 
Ephemeris | Orbit Diagram | Orbital Elements | Physical Parameters | Discovery Circumstances ]
ABOUT SSD CREDITS/AWARDS PRIVACY/COPYRIGHT GLOSSARY LINKS
FirstGov 2015-Mar-29 20:50 UT
(server date/time)  
NASA Home Page
Site Manager:   Ryan S. Park
Webmaster  Alan B. Chamberlin